{"data":{"norad_id":67296,"epoch":"2026-05-24T18:33:12.053088Z","epoch_age_seconds":108747,"freshness":"FRESH","line1":"1 67296U 25313BA  26144.77305617  .00009507  00000+0  38682-3 0  9997","line2":"2 67296  97.3946 220.1807 0010250  82.9396 277.3007 15.24680888 22410","mean_motion":15.24680888,"eccentricity":0.001025,"inclination_deg":97.3946,"raan_deg":220.1807,"arg_perigee_deg":82.9396,"mean_anomaly_deg":277.3007,"bstar":0.00038682,"rev_number":2241,"period_min":94.445992688275,"perigee_km":484.70220497678,"apogee_km":498.78546068408,"semimajor_km":6869.8808328304,"source":"CELESTRAK","updated_at":"2026-05-25T13:38:06.884024Z"}}